Home   Weather   Pirmasens   Past weeks

Flag for Germany Past Weather in Pirmasens, Rhineland-Palatinate, Germany — Yesterday and Last 2 Weeks

Now
26 °F

Overcast.


Feels Like: 17 °F
Forecast: 18 / 24 °F
Wind: 8 mph from North

Location: Ramstein

Current Time: Jan 17, 2017 at 10:03:49 am

Latest Report: Jan 17, 2017 at 8:58 am


Visibility: N/A

Pressure: 30.56 "Hg

Humidity: 75%

Dew Point: 19 °F

Location of PirmasensLocation

Past Weather in Pirmasens — Graph

°F

Pirmasens Temperature Yesterday

Maximum temperature yesterday: 32 °F (at 12:30 pm)
Minimum temperature yesterday: 16 °F (at 11:58 pm)
Average temperature yesterday: 26 °F

High & Low Weather Summary for the Past Weeks

 TemperatureHumidityPressure
High43 °F (Jan 12, 11:37 pm)100% (Jan 2, 8:58 am)30.80 "Hg (Jan 2, 8:58 am)
Low5 °F (Jan 7, 2:58 am)53% (Jan 6, 2:58 pm)29.22 "Hg (Jan 13, 12:00 am)
Average31 °F91%30.13 "Hg
* Reported Jan 2 8:58 am — Jan 17 8:58 am, Pirmasens, Weather by CustomWeather, © 2017

Note: Actual official high and low records may vary slightly from our data, if they occured in-between our weather recording intervals... More about our weather records

Advertising

Pirmasens Weather History for the Previous 24 Hours

Scroll right to see more
 ConditionsComfort  
Time TempWeatherWind HumidityBarometerVisibility
8:58 am
Tue, Jan 17
26 °FOvercast.8 mph75%30.56 "HgN/A
8:40 am25 °FOvercast.8 mph74%30.49 "HgN/A
7:58 am26 °FOvercast.7 mph71%30.55 "HgN/A
6:58 am25 °FPassing clouds.13 mph77%30.47 "HgN/A
6:42 am25 °FPassing clouds.13 mph80%30.46 "HgN/A
6:09 am25 °FOvercast.16 mph80%30.46 "HgN/A
5:58 am25 °FOvercast.12 mph80%30.46 "HgN/A
5:27 am25 °FOvercast.15 mph80%30.45 "HgN/A
4:58 am25 °FOvercast.10 mph80%30.45 "HgN/A
4:21 am23 °FPartly cloudy.13 mph86%30.44 "HgN/A
3:58 am23 °FPassing clouds.12 mph86%30.44 "HgN/A
3:37 am23 °FOvercast.16 mph86%30.43 "HgN/A
2:59 am23 °FOvercast.No wind93%30.43 "HgN/A
2:58 am23 °FOvercast.No wind93%30.43 "HgN/A
2:11 am21 °FOvercast.No wind93%30.42 "HgN/A
2:03 am19 °FPassing clouds.No wind93%30.41 "HgN/A
12:58 am18 °FClear.No wind93%30.40 "HgN/A
11:58 pm
Mon, Jan 16
16 °FClear.No wind93%30.39 "HgN/A
10:58 pm20 °FClear.No wind90%30.45 "HgN/A
9:58 pm23 °FClear.No wind86%30.44 "HgN/A
8:58 pm24 °FClear.5 mph84%30.42 "HgN/A
7:58 pm26 °FPassing clouds.5 mph82%30.40 "HgN/A
7:26 pm27 °FPassing clouds.No wind80%30.32 "HgN/A
7:20 pm27 °FPassing clouds.No wind80%30.32 "HgN/A
6:58 pm26 °FPassing clouds.No wind81%30.37 "HgN/A
5:58 pm27 °FPassing clouds.No wind80%30.35 "HgN/A
4:58 pm28 °FPassing clouds.No wind69%30.34 "HgN/A
3:58 pm30 °FScattered clouds.8 mph70%30.33 "HgN/A
1:58 pm31 °FPartly sunny.6 mph72%30.31 "HgN/A
1:19 pm32 °FScattered clouds.9 mph75%30.25 "HgN/A
12:58 pm32 °FPartly sunny.9 mph80%30.30 "HgN/A
12:30 pm32 °FPartly sunny.3 mph75%30.25 "HgN/A
11:58 am29 °FPassing clouds.No wind90%30.30 "HgN/A
11:35 am28 °FScattered clouds.No wind100%30.25 "HgN/A
11:00 am28 °FPartly sunny.No wind93%30.25 "HgN/A
Weather by CustomWeather, © 2017

See weather overviewHow to use our weather pages